Simultaneous Nadir Overpasses (SNOs) Predictions

Prediction of SNOs between AQUA and NPP Satellite Orbit:

Table of predicted SNOs for the next 14.0 days since TLE Epoch: 2/15/2025
Index Date (AQUA) Time (AQUA) Lat,Lon (AQUA) SZA (AQUA ) Date (NPP) Time (NPP) Lat,Lon (NPP) SZA (NPP ) Distance(km) Time Diff (sec)
1 02/15/2025 17:26:13 81.30,-150.98 99.73 02/15/2025 17:25:31 81.30,-151.03 99.76 0.84 42
2 02/15/2025 18:15:33 -81.29, 16.49 80.27 02/15/2025 18:16:15 -81.30, 16.68 80.32 3.17 42
3 02/18/2025 03:47:44 -81.31,-126.16 81.15 02/18/2025 03:47:10 -81.30,-126.27 81.12 2.01 34
4 02/18/2025 04:37:03 81.30, 41.32 98.86 02/18/2025 04:37:54 81.30, 41.39 98.82 1.28 51
5 02/20/2025 14:09:13 81.30,-101.62 97.99 02/20/2025 14:08:49 81.30,-101.62 98.01 0.30 24
6 02/20/2025 14:58:33 -81.29, 65.91 82.01 02/20/2025 14:59:33 -81.30, 66.07 82.07 2.80 60
7 02/23/2025 00:30:41 -81.30, -76.85 82.92 02/23/2025 00:30:28 -81.30, -77.02 82.89 2.92 13
8 02/23/2025 01:20:00 81.29, 90.55 97.11 02/23/2025 01:21:12 81.30, 90.64 97.06 1.80 72
9 02/25/2025 10:52:06 81.31, -52.09 96.17 02/25/2025 10:52:06 81.30, -52.13 96.17 1.02 0
10 02/27/2025 20:24:12 81.29, 164.65 95.29 02/27/2025 20:23:01 81.30, 164.64 95.34 0.57 71



Historial Predications of SNOs between AQUA and NPP
